Starlink 4407

operational
NORAD ID: 53196 Int'l Des: 2022-084 Owner: SPXS Country: US Constellation: starlink
LEOCIRCULARRETROGRADE

关于 Starlink 4407

正在加载描述...

实时位置

正在加载3D地球...

即将过境

高度历史

Altitude vs Time

uPlot chart will show altitude changes over time

两行轨道根数

1 53196U 22084H 25299.14081278 .00006430 00000-0 37174-4 0 9997
2 53196 97.6477 6.3778 0000657 348.9816 11.1435 15.79053303180251
Epoch: Oct 26, 2025 • Age: 7 hours

当前状态

高度 360.7 km
速度 7.69 km/s
星下点 -76.88°S, 41.68°W
发射日期 Jul 22, 2022
运行时间 3.2 years
类型 internet

技术详情

分类 Payload
质量 297.00 kg
干质量 275.00 kg
总质量 297.00 kg
长度 0.20 m
直径 2.80 m
跨度 9.00 m
形状 Box + pan
制造商 SPXS
平台类型 Starlink
阶段状态 In Orbit
所有者/国家 SPXS/US

大型星座

Loading constellations...